When you browse on this site, cookies collect data to enhance your experience and personalize the content and advertising you see.
Visit our Privacy Policy to learn more. By continuing to use the site, you agree to this use of cookies and data.
EN

Hourly Weather Mazari Sharif

Today, 3 July, Friday

Time Temperature Precipitation Wind Pressure Humidity
00:00 +21°C° 0 mm 2 mps 654 mmHg 28%
01:00 +21°C° 0 mm 2 mps 654 mmHg 29%
02:00 +20°C° 0 mm 2 mps 654 mmHg 29%
03:00 +20°C° 0 mm 2 mps 654 mmHg 30%
04:00 +20°C° 0 mm 2 mps 654 mmHg 30%
05:00 +21°C° 0 mm 2 mps 655 mmHg 27%
06:00 +24°C° 0 mm 2 mps 655 mmHg 24%
07:00 +26°C° 0 mm 2 mps 656 mmHg 20%
08:00 +27°C° 0 mm 2 mps 656 mmHg 19%
09:00 +29°C° 0 mm 3 mps 656 mmHg 17%
10:00 +30°C° 0 mm 3 mps 657 mmHg 15%
11:00 +32°C° 0 mm 4 mps 657 mmHg 14%
12:00 +32°C° 0 mm 4 mps 656 mmHg 13%
13:00 +33°C° 0 mm 5 mps 656 mmHg 11%
14:00 +33°C° 0 mm 5 mps 656 mmHg 10%
15:00 +33°C° 0 mm 5 mps 656 mmHg 9%
16:00 +33°C° 0 mm 5 mps 655 mmHg 8%
17:00 +30°C° 0 mm 4 mps 655 mmHg 9%
18:00 +28°C° 0 mm 3 mps 655 mmHg 10%
19:00 +26°C° 0 mm 2 mps 654 mmHg 11%
20:00 +25°C° 0 mm 2 mps 654 mmHg 12%
21:00 +24°C° 0 mm 2 mps 654 mmHg 13%
22:00 +23°C° 0 mm 2 mps 653 mmHg 14%
23:00 +23°C° 0 mm 2 mps 653 mmHg 14%

Tomorrow, 4 July, Saturday

Time Temperature Precipitation Wind Pressure Humidity
00:00 +21°C° 0 mm 2 mps 653 mmHg 15%
01:00 +20°C° 0 mm 2 mps 652 mmHg 15%
02:00 +21°C° 0 mm 1 mps 652 mmHg 16%
03:00 +20°C° 0 mm 1 mps 652 mmHg 17%
04:00 +20°C° 0 mm 1 mps 652 mmHg 18%
05:00 +21°C° 0 mm 2 mps 653 mmHg 16%
06:00 +24°C° 0 mm 2 mps 654 mmHg 14%
07:00 +26°C° 0 mm 2 mps 654 mmHg 13%
08:00 +27°C° 0 mm 3 mps 655 mmHg 12%
09:00 +28°C° 0 mm 4 mps 655 mmHg 11%
10:00 +29°C° 0 mm 4 mps 655 mmHg 11%
11:00 +30°C° 0 mm 5 mps 655 mmHg 11%
12:00 +32°C° 0 mm 6 mps 654 mmHg 10%
13:00 +32°C° 0 mm 6 mps 654 mmHg 10%
14:00 +32°C° 0 mm 6 mps 654 mmHg 10%
15:00 +32°C° 0 mm 6 mps 653 mmHg 9%
16:00 +32°C° 0 mm 6 mps 653 mmHg 9%
17:00 +29°C° 0 mm 5 mps 653 mmHg 10%
18:00 +27°C° 0 mm 4 mps 652 mmHg 11%
19:00 +26°C° 0 mm 3 mps 652 mmHg 12%
20:00 +25°C° 0 mm 3 mps 652 mmHg 12%
21:00 +24°C° 0 mm 3 mps 651 mmHg 13%
22:00 +22°C° 0 mm 3 mps 651 mmHg 14%
23:00 +23°C° 0 mm 2 mps 651 mmHg 14%

Day after tomorrow, 5 July, Sunday

Time Temperature Precipitation Wind Pressure Humidity
00:00 +21°C° 0 mm 2 mps 651 mmHg 15%
01:00 +21°C° 0 mm 2 mps 650 mmHg 15%
02:00 +20°C° 0 mm 2 mps 650 mmHg 16%
03:00 +20°C° 0 mm 2 mps 650 mmHg 16%
04:00 +19°C° 0 mm 2 mps 650 mmHg 17%
05:00 +21°C° 0 mm 2 mps 650 mmHg 16%
06:00 +23°C° 0 mm 2 mps 651 mmHg 15%
07:00 +25°C° 0 mm 2 mps 652 mmHg 15%
08:00 +26°C° 0 mm 3 mps 652 mmHg 14%
09:00 +27°C° 0 mm 3 mps 652 mmHg 14%
10:00 +28°C° 0 mm 4 mps 653 mmHg 14%
11:00 +29°C° 0 mm 4 mps 652 mmHg 14%
12:00 +30°C° 0 mm 5 mps 652 mmHg 13%
13:00 +32°C° 0 mm 5 mps 652 mmHg 13%
14:00 +32°C° 0 mm 4 mps 652 mmHg 13%
15:00 +32°C° 0 mm 4 mps 651 mmHg 13%
16:00 +31°C° 0 mm 3 mps 651 mmHg 13%
17:00 +29°C° 0 mm 3 mps 651 mmHg 14%
18:00 +28°C° 0 mm 3 mps 650 mmHg 16%
19:00 +26°C° 0 mm 2 mps 650 mmHg 17%
20:00 +25°C° 0 mm 2 mps 650 mmHg 18%
21:00 +25°C° 0 mm 2 mps 650 mmHg 19%
22:00 +24°C° 0 mm 2 mps 650 mmHg 19%
23:00 +24°C° 0 mm 2 mps 649 mmHg 20%

6 July, Monday

Time Temperature Precipitation Wind Pressure Humidity
00:00 +23°C° 0 mm 2 mps 649 mmHg 21%
01:00 +21°C° 0 mm 2 mps 649 mmHg 21%
02:00 +21°C° 0 mm 2 mps 649 mmHg 22%
03:00 +20°C° 0 mm 2 mps 648 mmHg 23%
04:00 +20°C° 0 mm 2 mps 648 mmHg 24%
05:00 +23°C° 0 mm 2 mps 649 mmHg 22%
06:00 +25°C° 0 mm 1 mps 650 mmHg 19%
07:00 +27°C° 0 mm 1 mps 651 mmHg 17%
08:00 +28°C° 0 mm 2 mps 651 mmHg 16%
09:00 +29°C° 0 mm 3 mps 651 mmHg 15%
10:00 +30°C° 0 mm 3 mps 651 mmHg 14%
11:00 +32°C° 0 mm 4 mps 651 mmHg 14%
12:00 +33°C° 0 mm 4 mps 651 mmHg 13%
13:00 +33°C° 0 mm 4 mps 651 mmHg 12%
14:00 +33°C° 0 mm 4 mps 651 mmHg 13%
15:00 +34°C° 0 mm 4 mps 651 mmHg 13%
16:00 +34°C° 0 mm 4 mps 651 mmHg 13%
17:00 +31°C° 0 mm 3 mps 650 mmHg 14%
18:00 +29°C° 0 mm 2 mps 650 mmHg 16%
19:00 +27°C° 0 mm 2 mps 649 mmHg 18%
20:00 +26°C° 0 mm 1 mps 649 mmHg 19%
21:00 +25°C° 0 mm 1 mps 649 mmHg 21%
22:00 +24°C° 0 mm 1 mps 649 mmHg 22%
23:00 +24°C° 0 mm 1 mps 649 mmHg 23%

7 July, Tuesday

Time Temperature Precipitation Wind Pressure Humidity
00:00 +23°C° 0 mm 1 mps 648 mmHg 23%
01:00 +23°C° 0 mm 1 mps 648 mmHg 24%
02:00 +22°C° 0 mm 1 mps 648 mmHg 25%
03:00 +22°C° 0 mm 1 mps 648 mmHg 25%
04:00 +21°C° 0 mm 1 mps 648 mmHg 26%
05:00 +24°C° 0 mm 1 mps 649 mmHg 23%
06:00 +26°C° 0 mm 1 mps 650 mmHg 20%
07:00 +28°C° 0 mm 1 mps 651 mmHg 17%
08:00 +29°C° 0 mm 2 mps 651 mmHg 16%
09:00 +31°C° 0 mm 2 mps 652 mmHg 15%
10:00 +33°C° 0 mm 3 mps 652 mmHg 14%
11:00 +34°C° 0 mm 3 mps 652 mmHg 14%
12:00 +34°C° 0 mm 4 mps 652 mmHg 13%
13:00 +35°C° 0 mm 5 mps 652 mmHg 13%
14:00 +35°C° 0 mm 4 mps 651 mmHg 13%
15:00 +35°C° 0 mm 4 mps 651 mmHg 13%
16:00 +35°C° 0 mm 4 mps 651 mmHg 12%
17:00 +33°C° 0 mm 3 mps 651 mmHg 14%
18:00 +30°C° 0 mm 2 mps 650 mmHg 15%
19:00 +29°C° 0 mm 2 mps 650 mmHg 16%
20:00 +28°C° 0 mm 1 mps 650 mmHg 18%
21:00 +26°C° 0 mm 1 mps 649 mmHg 19%
22:00 +25°C° 0 mm 1 mps 649 mmHg 20%
23:00 +25°C° 0 mm 1 mps 649 mmHg 21%

8 July, Wednesday

Time Temperature Precipitation Wind Pressure Humidity
00:00 +24°C° 0 mm 1 mps 649 mmHg 21%
01:00 +24°C° 0 mm 1 mps 648 mmHg 22%
02:00 +23°C° 0 mm 1 mps 648 mmHg 22%
03:00 +23°C° 0 mm 1 mps 648 mmHg 23%
04:00 +22°C° 0 mm 1 mps 648 mmHg 23%
05:00 +25°C° 0 mm 1 mps 649 mmHg 20%
06:00 +27°C° 0 mm 1 mps 650 mmHg 18%
07:00 +29°C° 0 mm 1 mps 651 mmHg 15%
08:00 +31°C° 0 mm 2 mps 651 mmHg 14%
09:00 +32°C° 0 mm 2 mps 651 mmHg 13%
10:00 +34°C° 0 mm 3 mps 651 mmHg 12%
11:00 +35°C° 0 mm 4 mps 651 mmHg 11%
12:00 +36°C° 0 mm 4 mps 651 mmHg 11%
13:00 +36°C° 0 mm 5 mps 651 mmHg 11%
14:00 +36°C° 0 mm 4 mps 651 mmHg 11%
15:00 +36°C° 0 mm 3 mps 651 mmHg 11%
16:00 +35°C° 0 mm 3 mps 651 mmHg 12%
17:00 +34°C° 0 mm 2 mps 650 mmHg 14%
18:00 +31°C° 0 mm 2 mps 650 mmHg 17%
19:00 +29°C° 0 mm 1 mps 650 mmHg 19%
20:00 +28°C° 0 mm 1 mps 649 mmHg 21%
21:00 +28°C° 0 mm 1 mps 649 mmHg 22%
22:00 +27°C° 0 mm 1 mps 649 mmHg 23%
23:00 +26°C° 0 mm 2 mps 649 mmHg 23%
Show more